Weather History for Richmond, KY

Change the Weather History Date:

Friday, April 4, 2014

  Actual Average (KLOZ) Record (KLOZ)
Temperature  
Mean Temperature 54 °F 53 °F  
Max Temperature 66 °F 65 °F 82 °F (1986)
Min Temperature 42 °F 41 °F 26 °F (1962)
Degree Days  
Heating Degree Days 11 12  
Month to date heating degree days 51  
Since 1 July heating degree days 3876  
Cooling Degree Days 0 0  
Month to date cooling degree days 0  
Year to date cooling degree days 3  
Growing Degree Days 4 (Base 50)    
Moisture  
Dew Point 50 °F    
Average Humidity 75    
Maximum Humidity 94    
Minimum Humidity 52    
Precipitation  
Precipitation 0.00 in 0.12 in 2.75 in (1977)
Month to date precipitation 0.51  
Year to date precipitation 11.81  
Sea Level Pressure  
Sea Level Pressure 29.79 in    
Wind  
Wind Speed 12 mph (SW)    
Max Wind Speed 29 mph    
Max Gust Speed 38 mph    
Visibility 10 miles    
Events      
T = Trace of Precipitation, MM = Missing Value Source: NWS Daily Summary

Daily Weather History Graph

Daily Weather History Graph

Search for Another Location

Airport:

Trip Planner

Search our weather history database for the weather conditions in past years. The results will help you decide how hot, cold, wet, or windy it might be!

Date:

Astronomy

Apr. 04, 2014 Rise Set
Actual Time 7:18 AM EDT 8:02 PM EDT
Civil Twilight 6:51 AM EDT 8:29 PM EDT
Nautical Twilight 6:20 AM EDT 9:00 PM EDT
Astronomical Twilight 5:48 AM EDT 9:33 PM EDT
Moon 10:38 AM EDT (4/4) 12:16 AM EDT (4/4)
Length of Visible Light 13h 37m
Length of Day
12h 44m
Waxing Crescent, 25% of the Moon is Illuminated
Apr 4
Waxing Crescent
Apr 7
First Quarter
Apr 15
Full
Apr 22
Last Quarter
Apr 29
New

Hourly Weather History & Observations

Time (EDT) Temp. Windchill Dew Point Humidity Pressure Visibility Wind Dir Wind Speed Gust Speed Precip Events Conditions
12:15 AM 59.0 °F - 55.4 °F 88% 29.83 in 10.0 mi SSE 8.1 mph - N/A   Clear
12:35 AM 59.0 °F - 55.4 °F 88% 29.84 in 10.0 mi South 8.1 mph - N/A   Clear
12:55 AM 59.0 °F - 55.4 °F 88% 29.83 in 10.0 mi SSE 10.4 mph - N/A   Mostly Cloudy
1:15 AM 59.0 °F - 55.4 °F 88% 29.81 in 10.0 mi SSE 11.5 mph - N/A   Scattered Clouds
1:35 AM 59.0 °F - 55.4 °F 88% 29.81 in 10.0 mi SE 9.2 mph - N/A   Clear
1:55 AM 59.0 °F - 55.4 °F 88% 29.80 in 10.0 mi SSE 9.2 mph - N/A   Mostly Cloudy
2:15 AM 59.0 °F - 55.4 °F 88% 29.77 in 10.0 mi SE 8.1 mph - N/A   Overcast
2:35 AM 59.0 °F - 55.4 °F 88% 29.76 in 10.0 mi SSE 6.9 mph - N/A   Mostly Cloudy
2:55 AM 60.8 °F - 55.4 °F 82% 29.76 in 10.0 mi South 6.9 mph - N/A   Mostly Cloudy
3:15 AM 62.6 °F - 55.4 °F 77% 29.75 in 10.0 mi South 10.4 mph - N/A   Overcast
3:35 AM 64.4 °F - 57.2 °F 77% 29.73 in 10.0 mi South 10.4 mph - N/A   Overcast
3:55 AM 64.4 °F - 55.4 °F 73% 29.72 in 10.0 mi South 13.8 mph 17.3 mph N/A   Mostly Cloudy
4:15 AM 64.4 °F - 55.4 °F 73% 29.71 in 10.0 mi South 13.8 mph 20.7 mph N/A   Clear
4:35 AM 64.4 °F - 55.4 °F 73% 29.68 in 10.0 mi South 12.7 mph 21.9 mph N/A   Clear
4:55 AM 64.4 °F - 55.4 °F 73% 29.68 in 10.0 mi South 13.8 mph 19.6 mph N/A   Scattered Clouds
5:15 AM 64.4 °F - 55.4 °F 73% 29.68 in 10.0 mi South 10.4 mph 17.3 mph N/A   Clear
5:35 AM 64.4 °F - 55.4 °F 73% 29.68 in 10.0 mi South 11.5 mph 18.4 mph N/A   Scattered Clouds
5:55 AM 64.4 °F - 55.4 °F 73% 29.68 in 10.0 mi South 11.5 mph 19.6 mph N/A   Mostly Cloudy
6:15 AM 64.4 °F - 55.4 °F 73% 29.67 in 10.0 mi South 13.8 mph 19.6 mph N/A   Scattered Clouds
6:35 AM 64.4 °F - 55.4 °F 73% 29.66 in 10.0 mi South 13.8 mph - N/A   Clear
6:55 AM 64.4 °F - 55.4 °F 73% 29.66 in 10.0 mi South 11.5 mph 20.7 mph N/A   Scattered Clouds
7:15 AM 64.4 °F - 55.4 °F 73% 29.68 in 10.0 mi SW 5.8 mph - N/A   Overcast
7:35 AM 64.4 °F - 55.4 °F 73% 29.67 in 10.0 mi WSW 6.9 mph - N/A   Overcast
7:55 AM 62.6 °F - 55.4 °F 77% 29.68 in 10.0 mi WSW 8.1 mph - N/A   Overcast
8:15 AM 60.8 °F - 57.2 °F 88% 29.69 in 5.0 mi West 10.4 mph - N/A   Overcast
8:35 AM 60.8 °F - 57.2 °F 88% 29.72 in 3.0 mi WNW 17.3 mph 23.0 mph N/A   Overcast
8:55 AM 59.0 °F - 55.4 °F 88% 29.73 in 7.0 mi West 11.5 mph 17.3 mph N/A   Overcast
9:15 AM 59.0 °F - 55.4 °F 88% 29.76 in 7.0 mi West 11.5 mph 16.1 mph N/A   Overcast
9:35 AM 59.0 °F - 55.4 °F 88% 29.76 in 5.0 mi SW 8.1 mph - N/A   Overcast
9:55 AM 59.0 °F - 55.4 °F 88% 29.76 in 10.0 mi SW 6.9 mph - N/A   Overcast
10:15 AM 59.0 °F - 55.4 °F 88% 29.72 in 10.0 mi SSE 9.2 mph - N/A   Overcast
10:35 AM 59.0 °F - 57.2 °F 94% 29.67 in 10.0 mi SE 9.2 mph - N/A   Scattered Clouds
10:55 AM 60.8 °F - 55.4 °F 82% 29.69 in 10.0 mi South 6.9 mph - N/A   Clear
11:15 AM 60.8 °F - 57.2 °F 88% 29.70 in 10.0 mi South 5.8 mph - N/A   Clear
11:35 AM 60.8 °F - 57.2 °F 88% 29.71 in 10.0 mi SSW 6.9 mph - N/A   Clear
11:55 AM 62.6 °F - 57.2 °F 82% 29.72 in 10.0 mi SSW 13.8 mph - N/A   Clear
12:15 PM 62.6 °F - 55.4 °F 77% 29.72 in 10.0 mi SSW 12.7 mph - N/A   Mostly Cloudy
12:35 PM 62.6 °F - 55.4 °F 77% 29.73 in 10.0 mi SSW 15.0 mph 19.6 mph N/A   Overcast
12:55 PM 62.6 °F - 53.6 °F 72% 29.74 in 10.0 mi SSW 12.7 mph 18.4 mph N/A   Overcast
1:15 PM 62.6 °F - 53.6 °F 72% 29.73 in 10.0 mi SSW 12.7 mph - N/A   Overcast
1:35 PM 62.6 °F - 53.6 °F 72% 29.74 in 10.0 mi SW 13.8 mph 24.2 mph N/A   Overcast
1:55 PM 60.8 °F - 53.6 °F 77% 29.74 in 10.0 mi SW 13.8 mph 25.3 mph N/A   Overcast
2:15 PM 64.4 °F - 55.4 °F 73% 29.74 in 10.0 mi SW 17.3 mph 24.2 mph N/A   Overcast
2:35 PM 64.4 °F - 53.6 °F 68% 29.75 in 10.0 mi WSW 18.4 mph 32.2 mph N/A   Overcast
2:55 PM 64.4 °F - 53.6 °F 68% 29.74 in 10.0 mi WSW 18.4 mph 29.9 mph N/A   Overcast
3:15 PM 64.4 °F - 51.8 °F 64% 29.74 in 10.0 mi WSW 20.7 mph 29.9 mph N/A   Scattered Clouds
3:35 PM 66.2 °F - 50.0 °F 56% 29.74 in 10.0 mi WSW 26.5 mph 38.0 mph N/A   Scattered Clouds
4:15 PM 66.2 °F - 48.2 °F 52% 29.74 in 10.0 mi WSW 16.1 mph 35.7 mph N/A   Mostly Cloudy
4:35 PM 59.0 °F - 50.0 °F 72% 29.77 in 10.0 mi West 25.3 mph 34.5 mph N/A   Overcast
4:55 PM 57.2 °F - 48.2 °F 72% 29.79 in 10.0 mi West 28.8 mph 38.0 mph N/A   Scattered Clouds
5:15 PM 57.2 °F - 48.2 °F 72% 29.81 in 10.0 mi West 20.7 mph 38.0 mph N/A   Mostly Cloudy
5:35 PM 55.4 °F - 46.4 °F 72% 29.82 in 10.0 mi West 21.9 mph 28.8 mph N/A   Overcast
5:55 PM 55.4 °F - 46.4 °F 72% 29.83 in 10.0 mi West 16.1 mph 32.2 mph N/A   Overcast
6:15 PM 55.4 °F - 44.6 °F 67% 29.84 in 10.0 mi West 23.0 mph 33.4 mph N/A   Scattered Clouds
6:35 PM 55.4 °F - 44.6 °F 67% 29.86 in 10.0 mi West 17.3 mph 28.8 mph N/A   Scattered Clouds
6:55 PM 53.6 °F - 42.8 °F 67% 29.87 in 10.0 mi West 17.3 mph 28.8 mph N/A   Scattered Clouds
7:15 PM 51.8 °F - 41.0 °F 67% 29.88 in 10.0 mi West 18.4 mph 27.6 mph N/A   Scattered Clouds
7:35 PM 51.8 °F - 41.0 °F 67% 29.90 in 10.0 mi WNW 20.7 mph 28.8 mph N/A   Mostly Cloudy
7:55 PM 50.0 °F - 39.2 °F 66% 29.92 in 10.0 mi WNW 21.9 mph 32.2 mph N/A   Mostly Cloudy
8:15 PM 46.4 °F 40.1 °F 37.4 °F 71% 29.93 in 10.0 mi WNW 15.0 mph 23.0 mph N/A   Mostly Cloudy
8:35 PM 46.4 °F 40.4 °F 35.6 °F 66% 29.94 in 10.0 mi WNW 13.8 mph 27.6 mph N/A   Mostly Cloudy
8:55 PM 46.4 °F 40.1 °F 33.8 °F 62% 29.96 in 10.0 mi WNW 15.0 mph 26.5 mph N/A   Overcast
9:15 PM 44.6 °F 38.8 °F 33.8 °F 66% 29.97 in 10.0 mi West 11.5 mph 26.5 mph N/A   Scattered Clouds
9:35 PM 44.6 °F 38.4 °F 33.8 °F 66% 29.98 in 10.0 mi West 12.7 mph - N/A   Clear
9:55 PM 42.8 °F 37.5 °F 33.8 °F 70% 30.00 in 10.0 mi West 9.2 mph 16.1 mph N/A   Clear
10:15 PM 44.6 °F 38.4 °F 33.8 °F 66% 30.01 in 10.0 mi West 12.7 mph 21.9 mph N/A   Mostly Cloudy
10:35 PM 44.6 °F 38.4 °F 33.8 °F 66% 30.01 in 10.0 mi West 12.7 mph 18.4 mph N/A   Overcast
10:55 PM 44.6 °F 37.8 °F 33.8 °F 66% 30.02 in 10.0 mi WNW 15.0 mph - N/A   Overcast
11:15 PM 44.6 °F 39.7 °F 32.0 °F 61% 30.02 in 10.0 mi West 9.2 mph 19.6 mph N/A   Overcast
11:35 PM 44.6 °F 39.2 °F 32.0 °F 61% 30.02 in 10.0 mi WNW 10.4 mph - N/A   Overcast
11:55 PM 44.6 °F 39.2 °F 32.0 °F 61% 30.03 in 10.0 mi West 10.4 mph - N/A   Overcast